Wind_Speed
16 14 12 12 13 12 11 10 9 8 5 3 3 3 3 5 5 5 5 4 4 6 6 6 5 6 9 10 10 9 8 8 8 10 10 10 10 10 10 11 12 13
16 15 13 13 13 12 12 11 9 7 5 4 4 2 1 3 5 6 7 6 6 7 7 7 7 7 9 11 12 10 8 8 8 10 10 10 10 10 10 11 12 13
17 15 12 11 12 13 13 12 9 7 5 5 4 2 2 3 4 6 7 8 8 8 8 9 8 7 7 10 12 11 10 9 9 9 11 11 11 11 11 12 13 14
17 14 11 11 13 15 15 13 10 7 5 4 3 3 4 4 4 4 7 10 10 9 9 10 9 6 6 9 12 11 11 11 10 10 12 13 12 12 13 14 14 14
18 15 12 12 14 16 16 13 9 6 4 4 4 4 5 6 6 5 6 10 11 10 10 11 11 7 6 9 11 11 11 12 11 12 13 14 13 12 12 13 14 14
19 16 13 12 15 16 15 11 7 5 4 3 5 5 6 7 7 5 5 9 9 9 9 10 11 9 7 8 9 10 11 11 11 11 12 13 13 11 10 10 11 14
19 17 13 13 15 15 12 10 7 5 5 4 5 6 6 5 4 5 7 8 8 8 9 10 10 10 9 8 8 9 11 12 11 9 10 11 11 10 9 9 10 14
22 19 15 13 15 14 11 10 8 6 5 5 5 6 5 4 6 7 8 8 8 8 9 10 11 11 11 9 8 10 12 13 13 11 10 10 10 9 9 9 10 14
21 18 16 15 14 13 11 10 9 7 5 5 6 6 5 7 8 8 8 8 8 8 8 9 10 12 12 11 9 10 13 14 14 13 12 12 11 11 10 10 10 12
20 18 17 17 15 15 12 10 8 6 5 5 5 4 6 8 8 8 8 8 9 9 8 8 8 9 10 10 9 11 13 14 15 15 14 13 13 13 13 12 11 11
21 19 19 19 18 18 14 10 8 5 3 4 4 5 7 7 7 7 7 7 8 9 9 8 8 8 9 10 10 11 13 14 15 15 14 13 13 14 15 15 14 13
22 21 22 22 22 21 17 13 9 5 2 3 4 6 7 6 6 6 5 3 4 7 9 9 9 9 9 10 11 12 13 15 15 14 13 12 12 13 16 17 17 16
24 25 25 24 22 20 18 13 8 5 3 3 5 7 7 5 4 4 4 3 2 2 6 9 9 10 11 11 11 11 12 14 15 14 13 14 14 13 14 16 17 18
27 27 26 24 21 16 16 14 10 7 5 5 6 7 7 5 3 3 3 3 2 1 3 5 7 9 12 13 12 11 13 14 15 14 14 16 15 14 14 15 16 17
26 23 23 24 23 18 17 17 13 10 8 8 8 9 8 7 6 5 5 5 4 3 2 3 3 6 11 13 12 12 13 14 15 15 15 16 16 15 15 16 16 16
21 21 22 23 22 20 19 17 14 13 11 10 10 10 9 9 8 7 7 7 6 6 5 4 3 3 6 10 11 12 13 14 15 15 16 16 17 17 18 17 17 17
16 17 18 19 18 18 18 17 15 14 12 12 12 11 10 11 10 9 9 9 9 8 8 7 6 4 4 6 8 9 11 13 15 16 16 17 17 18 19 19 19 18
13 14 14 14 16 16 16 15 15 14 13 12 12 11 11 12 11 11 11 11 11 11 11 10 9 8 8 8 8 8 9 11 13 15 16 18 19 19 19 19 19 19
13 14 14 14 15 15 15 14 14 14 13 12 11 10 10 11 13 14 13 13 13 13 13 12 11 11 11 12 13 13 12 11 12 13 14 16 18 19 20 20 20 19
13 12 12 13 13 13 13 14 14 13 13 13 13 13 12 12 13 15 15 15 15 14 14 14 13 13 13 13 14 16 17 16 15 15 15 15 16 18 19 20 20 19
15 13 12 11 10 10 11 12 12 12 12 14 16 17 17 17 16 16 17 17 17 17 17 16 15 16 16 15 15 16 18 20 21 20 19 19 19 20 20 20 21 21
16 14 13 12 10 9 10 10 10 10 11 13 15 15 17 18 19 18 18 17 17 18 19 19 18 17 17 17 17 17 18 20 22 24 24 24 24 24 24 24 24 24
13 12 12 12 10 9 9 9 10 10 10 12 13 13 12 14 16 17 17 17 17 19 21 22 21 20 19 19 18 18 18 19 22 24 24 25 26 26 26 27 27 27
7 6 6 7 6 6 6 6 7 7 8 9 10 10 10 11 12 13 13 15 16 18 21 23 24 25 24 23 22 21 20 20 22 24 25 26 26 27 28 29 29 28
2 1 0 1 2 3 4 4 5 6 8 9 10 10 11 11 12 12 13 13 14 16 18 21 24 25 26 28 28 27 26 25 24 24 25 27 29 30 31 31 28 26
4 5 6 7 7 8 9 9 10 11 11 12 12 13 14 14 15 15 15 15 16 16 17 19 21 23 24 26 28 29 30 29 28 26 25 25 27 29 31 31 27 25
Wind_Direction
204 215 219 209 199 196 195 195 197 202 205 206 215 230 232 229 230 232 233 230 214 211 216 226 227 204 195 194 190 189 186 178 175 174 173 177 178 184 191 189 182 179
205 208 206 200 198 200 198 195 199 208 208 201 201 193 215 229 232 232 235 236 226 217 216 224 224 204 192 193 192 191 187 180 179 173 170 176 177 180 186 184 180 177
197 195 193 197 202 202 197 193 201 214 209 204 207 215 239 242 237 228 227 231 235 229 214 214 220 204 184 188 187 183 178 175 181 179 170 174 180 183 185 183 182 177
187 188 194 203 205 199 195 195 204 216 212 213 224 245 265 275 271 245 224 225 233 234 215 206 216 213 183 181 178 174 175 176 180 179 171 171 175 180 184 183 183 181
182 187 196 209 205 195 194 198 208 218 217 228 241 252 272 284 289 280 235 220 225 231 215 201 210 214 180 172 174 175 178 179 179 176 172 171 169 171 178 180 184 183
182 187 194 205 200 192 195 199 206 223 227 237 246 257 278 288 287 270 219 206 212 221 212 198 203 206 185 170 174 184 187 183 182 181 178 175 168 166 166 166 176 177
183 187 190 196 194 192 199 202 207 225 234 240 249 263 277 274 249 210 188 184 190 202 205 200 201 204 200 190 186 195 198 193 188 189 189 181 172 168 157 150 162 165
186 188 189 190 193 198 204 208 219 231 235 244 257 267 261 216 192 188 185 181 183 193 203 207 210 213 217 220 210 200 201 201 197 196 198 190 178 172 161 150 153 157
193 193 192 189 192 201 209 217 224 230 235 249 258 257 222 186 189 196 194 193 191 192 197 204 212 217 223 230 219 198 200 206 204 202 206 202 190 181 172 164 159 160
201 199 194 190 190 198 209 216 214 214 228 245 250 230 195 187 197 202 201 203 201 199 196 193 198 205 212 215 204 193 198 207 207 206 210 212 207 197 186 180 177 177
205 201 195 192 193 197 196 192 191 196 229 246 234 196 185 188 189 186 189 198 204 205 200 193 191 190 190 190 189 191 196 201 205 206 209 216 216 207 199 194 193 193
208 204 199 195 197 195 183 170 174 186 229 243 215 189 181 172 158 153 151 159 194 207 203 197 193 188 185 184 186 191 194 194 197 199 202 205 204 199 199 200 202 204
209 201 195 196 201 194 181 175 173 174 199 216 199 192 184 166 147 142 135 118 118 184 195 194 191 189 188 188 186 188 190 190 190 191 192 193 190 187 190 195 200 205
202 192 188 199 213 207 194 201 202 184 189 199 194 196 195 192 191 180 172 169 146 132 176 183 186 191 193 191 188 189 191 189 187 187 190 192 191 188 188 191 196 201
198 194 194 203 218 221 209 206 203 191 190 196 199 203 206 213 220 215 210 207 200 208 219 204 196 198 202 202 196 192 195 195 194 194 195 198 199 198 196 196 199 202
197 198 198 197 206 213 206 197 195 193 194 198 203 206 208 214 219 219 219 216 214 222 234 239 237 214 211 215 210 203 202 203 204 207 206 205 207 209 208 207 206 208
193 193 192 188 191 196 193 193 196 196 198 201 201 204 210 213 215 221 225 224 225 230 235 241 247 246 235 229 224 221 219 216 216 220 221 220 219 219 220 220 220 221
182 189 189 185 186 187 189 194 197 199 203 204 200 203 212 216 221 225 225 228 234 239 242 245 248 253 254 250 244 239 235 233 232 232 233 233 233 232 232 232 233 236
157 175 182 183 186 189 192 196 201 204 206 204 201 205 213 220 227 229 227 228 234 240 244 248 250 252 255 255 252 249 246 243 242 245 246 245 244 244 245 245 246 249
133 151 163 173 182 189 194 199 203 204 203 205 210 215 219 222 226 229 229 228 230 235 241 246 249 249 250 252 251 250 249 248 248 249 252 256 258 257 256 256 258 260
116 122 131 146 163 178 187 193 197 197 198 205 214 220 225 228 229 230 231 229 229 233 236 240 244 246 248 250 250 249 248 248 249 249 250 254 260 262 262 263 264 266
110 112 116 123 135 154 171 178 180 182 187 197 206 214 220 226 230 232 234 235 235 236 236 236 238 242 246 249 250 251 249 247 248 249 250 253 256 259 261 262 263 264
112 114 117 120 126 139 153 162 167 171 178 187 199 209 214 218 225 230 234 239 243 244 244 242 241 244 247 249 250 251 249 248 248 248 249 252 254 256 258 258 260 261
109 116 122 128 136 145 153 163 172 179 186 192 202 213 218 219 221 225 232 238 243 246 248 249 248 249 250 251 252 251 250 250 250 250 251 252 254 256 257 255 254 256
55 41 237 221 223 225 225 223 221 221 222 223 226 230 235 237 236 233 234 238 241 244 247 250 251 251 252 252 253 253 253 252 254 256 257 257 259 261 263 262 260 259
294 283 278 275 272 271 270 266 263 260 255 253 253 252 253 255 255 253 249 248 249 249 250 252 253 253 252 252 252 253 254 253 254 257 260 262 265 266 269 272 273 271
Height
1526 1528 1530 1532 1533 1535 1536 1537 1538 1538 1538 1538 1538 1539 1539 1539 1540 1540 1540 1541 1541 1542 1542 1543 1543 1543 1543 1543 1543 1544 1544 1545 1545 1545 1545 1546 1546 1547 1548 1548 1549 1551
1526 1528 1530 1532 1533 1534 1536 1537 1537 1537 1537 1538 1538 1538 1539 1539 1539 1539 1540 1541 1541 1542 1542 1543 1543 1543 1543 1543 1543 1544 1544 1545 1545 1545 1545 1546 1546 1547 1547 1548 1549 1550
1526 1528 1530 1531 1532 1533 1535 1536 1537 1537 1537 1538 1538 1538 1539 1539 1539 1539 1540 1540 1541 1542 1542 1542 1543 1543 1543 1543 1543 1544 1544 1545 1545 1545 1546 1546 1546 1546 1547 1548 1548 1550
1525 1527 1528 1530 1531 1533 1534 1536 1536 1537 1537 1538 1538 1538 1539 1539 1539 1539 1539 1540 1540 1541 1542 1542 1543 1543 1543 1543 1544 1544 1544 1545 1545 1546 1546 1546 1547 1547 1547 1548 1548 1550
1524 1526 1527 1529 1531 1532 1534 1535 1536 1537 1537 1538 1538 1538 1539 1539 1539 1539 1539 1539 1540 1541 1542 1542 1543 1543 1544 1544 1544 1544 1545 1545 1546 1546 1547 1547 1547 1548 1548 1548 1549 1550
1523 1526 1527 1529 1531 1532 1534 1535 1536 1537 1537 1537 1538 1538 1539 1539 1539 1538 1539 1539 1540 1540 1541 1543 1543 1544 1544 1544 1544 1545 1546 1546 1547 1547 1548 1548 1548 1549 1549 1549 1550 1551
1523 1525 1526 1528 1530 1533 1534 1535 1536 1537 1537 1537 1538 1538 1538 1538 1538 1538 1539 1539 1540 1541 1542 1543 1544 1544 1544 1545 1545 1545 1546 1547 1548 1548 1549 1549 1550 1550 1550 1551 1551 1552
1521 1523 1525 1527 1529 1532 1534 1535 1536 1537 1537 1538 1538 1538 1538 1538 1539 1539 1539 1539 1540 1541 1542 1543 1544 1544 1545 1545 1545 1546 1546 1547 1548 1549 1550 1551 1551 1551 1551 1552 1552 1553
1521 1523 1524 1526 1528 1531 1534 1535 1536 1537 1537 1538 1538 1539 1539 1539 1539 1539 1539 1539 1540 1540 1542 1543 1543 1544 1544 1545 1545 1546 1547 1548 1549 1550 1551 1551 1552 1552 1553 1553 1554 1555
1521 1523 1524 1526 1528 1531 1533 1534 1535 1536 1537 1537 1538 1538 1539 1539 1539 1539 1539 1539 1539 1540 1541 1542 1543 1543 1544 1544 1545 1546 1547 1548 1549 1550 1551 1552 1553 1553 1554 1555 1555 1556
1521 1523 1525 1527 1528 1530 1532 1533 1535 1536 1537 1537 1538 1538 1539 1539 1539 1539 1539 1539 1540 1540 1540 1541 1542 1543 1543 1544 1545 1546 1547 1548 1549 1550 1551 1552 1552 1554 1555 1556 1556 1557
1521 1522 1524 1527 1528 1529 1530 1532 1534 1535 1536 1537 1538 1538 1539 1539 1540 1540 1540 1540 1540 1540 1541 1541 1542 1543 1543 1544 1545 1546 1546 1547 1548 1550 1551 1552 1552 1553 1555 1556 1557 1558
1520 1521 1523 1526 1528 1528 1530 1532 1533 1534 1536 1537 1538 1538 1539 1539 1540 1540 1540 1541 1541 1541 1541 1542 1542 1543 1544 1544 1545 1546 1546 1547 1548 1550 1551 1552 1553 1554 1555 1556 1557 1558
1517 1518 1521 1525 1527 1528 1530 1532 1533 1534 1535 1536 1537 1538 1539 1540 1540 1540 1541 1541 1541 1542 1542 1542 1543 1543 1543 1544 1545 1546 1546 1547 1548 1549 1551 1552 1553 1554 1555 1556 1557 1558
1516 1518 1521 1523 1526 1527 1529 1531 1533 1534 1535 1536 1537 1538 1539 1540 1540 1540 1541 1541 1542 1542 1543 1543 1543 1543 1543 1544 1545 1545 1546 1547 1548 1549 1551 1552 1553 1554 1555 1556 1557 1557
1517 1519 1520 1522 1524 1526 1528 1531 1532 1533 1534 1535 1536 1537 1538 1539 1540 1540 1540 1541 1541 1542 1543 1543 1544 1544 1544 1544 1545 1546 1546 1547 1548 1549 1550 1551 1553 1553 1554 1555 1556 1557
1518 1519 1520 1522 1524 1525 1528 1529 1531 1532 1533 1534 1535 1537 1538 1539 1539 1540 1540 1540 1541 1541 1542 1543 1544 1544 1545 1545 1545 1546 1547 1547 1548 1549 1550 1551 1552 1552 1553 1554 1555 1556
1518 1519 1520 1522 1523 1525 1527 1528 1529 1531 1533 1534 1535 1536 1537 1538 1539 1539 1539 1540 1540 1541 1541 1542 1543 1544 1545 1545 1546 1546 1547 1548 1548 1549 1549 1550 1551 1551 1552 1553 1554 1555
1518 1519 1520 1521 1523 1524 1526 1527 1528 1530 1532 1533 1534 1535 1536 1537 1538 1538 1538 1539 1540 1540 1541 1541 1542 1543 1544 1545 1545 1546 1547 1547 1548 1549 1549 1549 1550 1550 1551 1552 1552 1553
1519 1519 1520 1522 1523 1524 1525 1526 1527 1528 1531 1532 1532 1533 1535 1536 1536 1537 1537 1538 1538 1539 1539 1540 1541 1542 1543 1543 1544 1545 1546 1546 1547 1548 1548 1548 1549 1549 1549 1550 1551 1551
1520 1520 1521 1522 1523 1523 1524 1525 1526 1528 1529 1530 1531 1532 1533 1534 1535 1536 1536 1536 1537 1537 1538 1538 1539 1540 1541 1542 1542 1543 1544 1545 1545 1546 1546 1547 1547 1547 1548 1549 1549 1550
1521 1521 1522 1522 1523 1524 1525 1525 1526 1527 1528 1529 1531 1531 1532 1533 1534 1535 1535 1535 1535 1535 1536 1537 1537 1538 1538 1539 1540 1541 1542 1542 1543 1544 1544 1545 1545 1545 1546 1546 1547 1547
1522 1523 1523 1524 1524 1525 1526 1526 1527 1528 1528 1530 1531 1531 1531 1532 1533 1533 1534 1534 1534 1534 1534 1535 1536 1536 1536 1536 1537 1538 1539 1540 1540 1541 1541 1542 1542 1542 1543 1543 1544 1544
1523 1524 1524 1525 1526 1526 1527 1527 1527 1528 1529 1530 1530 1531 1531 1531 1532 1532 1532 1532 1532 1533 1533 1533 1534 1534 1534 1534 1535 1535 1536 1537 1537 1538 1538 1538 1538 1539 1539 1539 1540 1542
1523 1524 1525 1526 1527 1527 1528 1528 1529 1529 1529 1530 1530 1530 1530 1530 1530 1530 1531 1530 1531 1531 1531 1531 1531 1532 1532 1532 1532 1532 1532 1533 1533 1534 1534 1535 1535 1535 1534 1534 1536 1539
1523 1524 1525 1525 1526 1527 1528 1528 1528 1528 1529 1529 1528 1528 1528 1528 1528 1528 1529 1529 1529 1529 1529 1529 1528 1529 1529 1529 1529 1529 1529 1529 1530 1530 1530 1531 1532 1532 1531 1531 1532 1534